Back to catalog

THOR ABLESTAR DEB

AliveLEO
NORAD 404·DEBRIS·🇺🇸 United States

Launched Jun 29, 1961 from Cape Canaveral Space Force Station

Loading…

Next Passes (next 24 hours)

TLE

FreshSource: Space-Track

Epoch: Sep 14, 2026, 12:02 UTC

1 00404U 61015ED  26257.50156003  .00000150  00000-0  39316-3 0  9994
2 00404  66.4677 276.3327 0549201 124.2823 241.1470 12.92580580 54782

Track THOR ABLESTAR DEB in real time with AllMySat

Download on the App Store